Location: Arbury
(52.2217°N, 0.1159°E)
Time: 20:39:54
(UTC+00:00)

ISS - Visible Passes

Search period start: 23 November 2017 00:00
Search period end: 03 December 2017 00:00
Orbit: 402 x 407 km, 51.6° (Epoch: 24 November)

Date Brightness Start Highest point End Pass type
(mag) Time Alt. Az. Time Alt. Az. Time Alt. Az.
28 Nov -0.8 18:50:18 10° SSW 18:50:30 11° SSW 18:50:30 11° SSW visible
29 Nov -1.9 17:58:32 10° SSW 18:00:25 19° SSE 18:00:25 19° SSE visible
30 Nov -1.5 17:07:16 10° S 17:08:50 13° SE 17:10:15 11° ESE visible
30 Nov -1.5 18:41:34 10° SW 18:42:54 21° SW 18:42:54 21° SW visible
01 Dec -2.8 17:49:28 10° SW 17:52:26 32° SSE 17:52:40 32° SE visible
02 Dec -2.1 16:57:33 10° SSW 17:00:11 22° SSE 17:02:23 12° E visible
02 Dec -2.2 18:33:02 10° WSW 18:35:02 33° WSW 18:35:02 33° WSW visible
